DW4847 Weather Reports


Display with metric or nautical units.
time (UTC)temp
F
wind
direction
speed
MPH
gust
MPH
rain 1hr
in
rain 24hr
in
rain mn
in
humidity
%
barometer
mb
20260905130107 61 319 1.0 4.0 0.00 0.00 0.00 92 1011.1
20260905125553 61 218 1.0 3.0 0.00 0.00 0.00 95 1011.2
20260905125036 60 316 1.0 3.0 0.00 0.00 0.00 96 1011.3
20260905124539 60 242 1.0 2.0 0.00 0.00 0.00 97 1011.2
20260905124024 59 360 0.0 4.0 0.00 0.00 0.00 97 1011.3
20260905123532 59 355 1.0 4.0 0.00 0.00 0.00 97 1011.3
20260905123032 59 325 0.0 1.0 0.00 0.00 0.00 97 1011.4
20260905122536 58 325 0.0 1.0 0.00 0.00 0.00 97 1011.3
20260905122024 58 311 0.0 2.0 0.00 0.00 0.00 97 1011.3
20260905121527 57 317 0.0 2.0 0.00 0.00 0.00 97 1011.2
20260905121105 57 317 0.0 2.0 0.00 0.00 0.00 97 1011.1
20260905120552 56 318 0.0 2.0 0.00 0.00 0.00 97 1011.0
20260905120033 56 318 0.0 1.0 0.00 0.00 0.00 97 1011.0
20260905115554 56 317 0.0 1.0 0.00 0.00 0.00 97 1010.9
20260905115055 56 317 0.0 2.0 0.00 0.00 0.00 97 1010.9
20260905114552 55 317 1.0 2.0 0.00 0.00 0.00 97 1010.9
20260905114100 55 305 0.0 2.0 0.00 0.00 0.00 97 1010.8
20260905113544 55 305 0.0 3.0 0.00 0.00 0.00 97 1010.8
20260905113029 55 190 0.0 1.0 0.00 0.00 0.00 97 1010.8
20260905112527 55 186 0.0 1.0 0.00 0.00 0.00 96 1010.8
20260905112033 55 186 0.0 1.0 0.00 0.00 0.00 96 1010.8
20260905111537 54 186 0.0 1.0 0.00 0.00 0.00 96 1010.8
20260905111043 54 186 0.0 1.0 0.00 0.00 0.00 96 1010.7
20260905110533 54 186 0.0 1.0 0.00 0.00 0.00 96 1010.7
20260905110037 54 186 0.0 1.0 0.00 0.00 0.00 96 1010.6
20260905105541 54 186 0.0 0.0 0.00 0.00 0.00 96 1010.6
20260905105039 54 186 0.0 0.0 0.00 0.00 0.00 96 1010.5
20260905104617 54 186 0.0 0.0 0.00 0.00 0.00 96 1010.4
20260905104026 54 186 0.0 1.0 0.00 0.00 0.00 96 1010.4
20260905103531 54 186 0.0 1.0 0.00 0.00 0.00 96 1010.3
20260905103047 54 186 0.0 1.0 0.00 0.00 0.00 96 1010.3
20260905102553 54 186 0.0 1.0 0.00 0.00 0.00 96 1010.3
20260905102057 54 186 0.0 1.0 0.00 0.00 0.00 96 1010.3
20260905101537 54 186 1.0 1.0 0.00 0.00 0.00 96 1010.3
20260905101039 55 186 0.0 1.0 0.00 0.00 0.00 96 1010.3
20260905100543 55 186 1.0 1.0 0.00 0.00 0.00 96 1010.2
20260905100025 55 186 0.0 1.0 0.00 0.00 0.00 96 1010.2
20260905095531 55 186 0.0 0.0 0.00 0.00 0.00 96 1010.3
20260905095034 55 186 0.0 0.0 0.00 0.00 0.00 96 1010.2
20260905094526 55 186 0.0 0.0 0.00 0.00 0.00 96 1010.2
20260905094032 55 186 0.0 0.0 0.00 0.00 0.00 96 1010.2
20260905093535 55 186 0.0 0.0 0.00 0.00 0.00 96 1010.2
20260905093040 55 186 0.0 0.0 0.00 0.00 0.00 96 1010.3
20260905092529 55 186 0.0 0.0 0.00 0.00 0.00 96 1010.3
20260905092041 55 186 0.0 0.0 0.00 0.00 0.00 96 1010.3
20260905091545 56 186 0.0 0.0 0.00 0.00 0.00 96 1010.3
20260905091034 56 186 0.0 0.0 0.00 0.00 0.00 96 1010.3
20260905090538 56 186 0.0 0.0 0.00 0.00 0.00 96 1010.3
20260905090035 56 186 0.0 0.0 0.00 0.00 0.00 96 1010.3
20260905085539 56 186 0.0 0.0 0.00 0.00 0.00 96 1010.2
20260905085100 56 186 0.0 0.0 0.00 0.00 0.00 96 1010.2
20260905084529 56 186 0.0 0.0 0.00 0.00 0.00 96 1010.2
20260905084032 56 186 0.0 0.0 0.00 0.00 0.00 96 1010.2
20260905083554 56 186 0.0 0.0 0.00 0.00 0.00 96 1010.2
20260905083038 56 186 0.0 0.0 0.00 0.00 0.00 96 1010.1
20260905082540 56 186 0.0 0.0 0.00 0.00 0.00 96 1010.0
20260905082049 56 186 0.0 0.0 0.00 0.00 0.00 96 1010.1
20260905081532 56 186 0.0 0.0 0.00 0.00 0.00 96 1010.0
20260905081058 56 186 0.0 0.0 0.00 0.00 0.00 96 1010.1
20260905080542 56 186 0.0 0.0 0.00 0.00 0.00 96 1010.1
20260905080043 56 186 0.0 0.0 0.00 0.00 0.00 96 1010.2
20260905075525 56 186 0.0 0.0 0.00 0.00 0.00 96 1010.3
20260905075024 56 186 0.0 0.0 0.00 0.00 0.00 96 1010.3
20260905074527 56 186 0.0 0.0 0.00 0.00 0.00 96 1010.2
20260905074033 56 186 0.0 0.0 0.00 0.00 0.00 96 1010.2
20260905073553 56 186 0.0 0.0 0.00 0.00 0.00 96 1010.2
20260905073056 56 186 0.0 0.0 0.00 0.00 0.00 96 1010.2
20260905072559 56 186 0.0 0.0 0.00 0.00 0.00 96 1010.3
20260905072044 56 186 0.0 0.0 0.00 0.00 0.00 96 1010.3
20260905071549 56 186 0.0 0.0 0.00 0.00 0.00 96 1010.3
20260905071052 56 186 0.0 1.0 0.00 0.00 0.00 96 1010.3
20260905070603 56 186 0.0 1.0 0.00 0.00 0.00 96 1010.3
20260905070044 56 186 0.0 1.0 0.00 0.00 0.00 96 1010.4
20260905065546 56 186 0.0 1.0 0.00 0.00 0.00 95 1010.4
20260905065027 56 186 0.0 1.0 0.00 0.00 0.00 95 1010.4
20260905064532 56 186 0.0 1.0 0.00 0.00 0.00 95 1010.4
20260905064038 56 186 0.0 0.0 0.00 0.00 0.00 95 1010.4
20260905063558 56 186 0.0 0.0 0.00 0.00 0.00 95 1010.4
20260905063100 56 186 0.0 0.0 0.00 0.00 0.00 95 1010.5
20260905062543 56 186 0.0 0.0 0.00 0.00 0.00 95 1010.6
20260905062030 56 186 0.0 0.0 0.00 0.00 0.00 95 1010.5
20260905061533 56 186 0.0 0.0 0.00 0.00 0.00 95 1010.6
20260905061031 57 186 0.0 0.0 0.00 0.00 0.00 95 1010.6
20260905060539 57 186 0.0 0.0 0.00 0.00 0.00 95 1010.7
20260905060041 57 186 0.0 0.0 0.00 0.00 0.00 95 1010.7
20260905055526 57 186 0.0 0.0 0.00 0.00 0.00 95 1010.8
20260905055029 57 186 0.0 0.0 0.00 0.00 0.00 95 1011.0
20260905054533 57 186 0.0 1.0 0.00 0.00 0.00 95 1011.0
20260905054041 57 186 0.0 1.0 0.00 0.00 0.00 95 1011.1
20260905053616 57 186 0.0 1.0 0.00 0.00 0.00 95 1011.1
20260905053056 57 186 0.0 0.0 0.00 0.00 0.00 95 1011.1
20260905052538 57 186 0.0 0.0 0.00 0.00 0.00 95 1011.2
20260905052100 57 186 0.0 0.0 0.00 0.00 0.00 95 1011.3
20260905051604 57 186 0.0 0.0 0.00 0.00 0.00 94 1011.3
20260905051028 57 186 0.0 0.0 0.00 0.00 0.00 94 1011.3
20260905050532 57 186 0.0 0.0 0.00 0.00 0.00 94 1011.4
20260905050036 57 186 0.0 0.0 0.00 0.00 0.00 94 1011.4
20260905045525 57 186 0.0 0.0 0.00 0.00 0.00 94 1011.5
20260905045028 57 186 0.0 0.0 0.00 0.00 0.00 94 1011.5
20260905044546 58 186 0.0 0.0 0.00 0.00 0.00 93 1011.4
20260905044032 58 186 0.0 1.0 0.00 0.00 0.00 93 1011.4
20260905043539 58 186 0.0 1.0 0.00 0.00 0.00 94 1011.5
20260905043036 58 186 0.0 0.0 0.00 0.00 0.00 93 1011.6
20260905042539 58 186 0.0 0.0 0.00 0.00 0.00 93 1011.5
20260905042025 58 186 0.0 0.0 0.00 0.00 0.00 93 1011.5
20260905041551 58 186 0.0 1.0 0.00 0.00 0.00 93 1011.4
20260905041108 59 186 0.0 1.0 0.00 0.00 0.00 92 1011.4
20260905040557 59 186 0.0 0.0 0.00 0.00 0.00 92 1011.3
20260905040033 59 186 0.0 0.0 0.00 0.00 0.00 92 1011.3
20260905035539 59 186 0.0 0.0 0.00 0.00 0.00 92 1011.2
20260905035021 59 186 0.0 0.0 0.00 0.00 0.00 91 1011.1
20260905034530 60 186 0.0 0.0 0.00 0.00 0.00 91 1011.0
20260905034036 60 186 0.0 1.0 0.00 0.00 0.00 91 1011.0
20260905033541 60 186 0.0 1.0 0.00 0.00 0.00 90 1011.1
20260905033117 60 186 0.0 0.0 0.00 0.00 0.00 90 1011.1
20260905032523 61 186 0.0 0.0 0.00 0.00 0.00 90 1011.2
20260905032102 61 186 0.0 0.0 0.00 0.00 0.00 90 1011.3
20260905031527 61 186 0.0 0.0 0.00 0.00 0.00 89 1011.3
20260905031053 61 186 0.0 1.0 0.00 0.00 0.00 88 1011.4
20260905030536 61 186 0.0 1.0 0.00 0.00 0.00 88 1011.4
20260905030038 62 186 0.0 0.0 0.00 0.00 0.00 88 1011.4
20260905025537 62 186 0.0 0.0 0.00 0.00 0.00 87 1011.4
20260905025026 62 186 0.0 1.0 0.00 0.00 0.00 88 1011.4
20260905024532 62 186 0.0 1.0 0.00 0.00 0.00 88 1011.4
20260905024035 62 186 0.0 1.0 0.00 0.00 0.00 87 1011.4
20260905023554 63 184 0.0 1.0 0.00 0.00 0.00 87 1011.4
20260905023056 63 184 0.0 2.0 0.00 0.00 0.00 87 1011.4
20260905022523 63 184 0.0 2.0 0.00 0.00 0.00 87 1011.3
20260905022041 63 184 0.0 1.0 0.00 0.00 0.00 87 1011.4
20260905021541 64 184 0.0 1.0 0.00 0.00 0.00 88 1011.3
20260905021047 64 184 0.0 1.0 0.00 0.00 0.00 87 1011.3
20260905020531 64 184 0.0 1.0 0.00 0.00 0.00 86 1011.3
20260905020032 64 184 0.0 1.0 0.00 0.00 0.00 86 1011.3
20260905015556 64 184 0.0 1.0 0.00 0.00 0.00 86 1011.4
20260905015037 64 184 0.0 1.0 0.00 0.00 0.00 86 1011.5
20260905014536 64 184 0.0 1.0 0.00 0.00 0.00 86 1011.7
20260905014038 65 184 0.0 1.0 0.00 0.00 0.00 85 1011.7
20260905013558 65 184 0.0 1.0 0.00 0.00 0.00 86 1011.8
20260905013100 65 184 0.0 1.0 0.00 0.00 0.00 85 1011.8
20260905012527 65 184 0.0 0.0 0.00 0.00 0.00 86 1011.8
20260905012046 64 184 0.0 0.0 0.00 0.00 0.00 86 1011.9
20260905011555 64 184 0.0 0.0 0.00 0.00 0.00 87 1011.9
20260905011053 64 182 0.0 0.0 0.00 0.00 0.00 88 1011.9
20260905010537 64 182 0.0 1.0 0.00 0.00 0.00 89 1011.9
20260905010042 64 182 0.0 1.0 0.00 0.00 0.00 89 1011.9
20260905005549 64 182 0.0 2.0 0.00 0.00 0.00 90 1011.9
20260905005031 64 182 0.0 2.0 0.00 0.00 0.00 90 1011.9
20260905004535 64 248 0.0 2.0 0.00 0.00 0.00 90 1011.9
20260905004038 65 248 0.0 2.0 0.00 0.00 0.00 90 1011.9
20260905003545 65 248 0.0 2.0 0.00 0.00 0.00 90 1011.9
20260905003028 65 248 0.0 1.0 0.00 0.00 0.00 89 1011.9
20260905002538 65 248 0.0 1.0 0.00 0.00 0.00 89 1011.7
20260905002030 65 248 0.0 1.0 0.00 0.00 0.00 88 1011.5
20260905001533 65 248 0.0 1.0 0.00 0.00 0.00 88 1011.4
20260905001038 66 248 0.0 1.0 0.00 0.00 0.00 88 1011.3
20260905000545 66 248 0.0 1.0 0.00 0.00 0.00 88 1011.2
20260905000027 66 248 0.0 0.0 0.00 0.00 0.00 88 1011.2
20260904235605 66 248 0.0 1.0 0.00 0.00 0.00 86 1011.2
20260904235030 66 248 0.0 1.0 0.00 0.00 0.00 87 1011.1
20260904234533 66 248 0.0 1.0 0.00 0.00 0.00 87 1011.1
20260904234034 66 248 0.0 1.0 0.00 0.00 0.00 85 1011.1
20260904233554 66 249 0.0 1.0 0.00 0.00 0.00 85 1011.2
20260904233058 66 249 0.0 1.0 0.00 0.00 0.00 85 1011.1
20260904232603 66 249 0.0 1.0 0.00 0.00 0.00 86 1011.0
20260904232030 66 249 0.0 0.0 0.00 0.00 0.00 87 1010.9
20260904231533 66 249 0.0 1.0 0.00 0.00 0.00 87 1011.0
20260904231056 67 249 0.0 1.0 0.00 0.00 0.00 87 1011.0
20260904230538 67 249 0.0 1.0 0.00 0.00 0.00 88 1011.0
20260904230115 67 249 0.0 1.0 0.00 0.00 0.00 88 1011.0
20260904225600 67 249 0.0 1.0 0.00 0.00 0.00 88 1010.9
20260904225038 67 249 0.0 1.0 0.00 0.00 0.00 89 1010.9
20260904224544 67 249 0.0 1.0 0.00 0.00 0.00 88 1010.9
20260904224033 68 249 0.0 1.0 0.00 0.00 0.00 87 1011.1
20260904223536 68 249 0.0 1.0 0.00 0.00 0.00 87 1011.1
20260904223042 68 249 0.0 1.0 0.00 0.00 0.00 87 1011.0
20260904222545 68 249 0.0 1.0 0.00 0.00 0.00 86 1010.9
20260904222027 69 252 0.0 1.0 0.00 0.00 0.00 86 1010.7
20260904221526 69 252 0.0 1.0 0.00 0.00 0.00 84 1010.7
20260904221029 69 252 0.0 1.0 0.00 0.00 0.00 84 1010.7
20260904220534 70 252 0.0 1.0 0.00 0.00 0.00 82 1010.8
20260904220037 70 252 0.0 1.0 0.00 0.00 0.00 81 1010.8
20260904215555 71 254 0.0 1.0 0.00 0.00 0.00 80 1010.8
20260904215057 72 254 0.0 1.0 0.00 0.00 0.00 75 1010.8
20260904214534 72 254 0.0 1.0 0.00 0.00 0.00 74 1010.9
20260904214038 72 254 0.0 3.0 0.00 0.00 0.00 72 1011.0
20260904213547 72 319 1.0 3.0 0.00 0.00 0.00 71 1010.9
20260904213032 73 221 0.0 3.0 0.00 0.00 0.00 69 1010.9
20260904212535 73 244 1.0 3.0 0.00 0.00 0.00 69 1010.9
20260904212038 73 322 1.0 3.0 0.00 0.00 0.00 69 1010.9
20260904211555 73 280 0.0 3.0 0.00 0.00 0.00 68 1011.0
20260904211053 73 185 0.0 3.0 0.00 0.00 0.00 68 1011.0
20260904210529 73 276 1.0 2.0 0.00 0.00 0.00 68 1011.0
20260904210032 73 71 1.0 3.0 0.00 0.00 0.00 68 1011.0
20260904205550 74 228 1.0 3.0 0.00 0.00 0.00 69 1011.1
20260904205054 74 246 0.0 6.0 0.00 0.00 0.00 70 1011.0
20260904204537 74 297 1.0 6.0 0.00 0.00 0.00 68 1011.0
20260904204041 74 310 2.0 5.0 0.00 0.00 0.00 67 1011.0
20260904203546 74 181 0.0 7.0 0.00 0.00 0.00 65 1011.0
20260904203042 74 328 1.0 7.0 0.00 0.00 0.00 67 1011.0
20260904202534 74 251 0.0 4.0 0.00 0.00 0.00 65 1010.9
20260904202037 74 232 2.0 4.0 0.00 0.00 0.00 67 1011.0
20260904201541 74 340 1.0 4.0 0.00 0.00 0.00 65 1011.1
20260904201026 74 188 2.0 3.0 0.00 0.00 0.00 65 1011.1
20260904200531 74 168 1.0 3.0 0.00 0.00 0.00 65 1011.1
20260904200032 74 226 1.0 6.0 0.00 0.00 0.00 64 1011.1
20260904195534 74 230 1.0 5.0 0.00 0.00 0.00 67 1011.0
20260904195037 74 26 1.0 5.0 0.00 0.00 0.00 67 1011.1
20260904194543 74 311 0.0 3.0 0.00 0.00 0.00 66 1011.1
20260904194026 74 249 1.0 5.0 0.00 0.00 0.00 63 1011.1
20260904193530 75 252 1.0 5.0 0.00 0.00 0.00 64 1011.1
20260904193031 74 28 2.0 5.0 0.00 0.00 0.00 63 1011.1
20260904192534 74 306 2.0 5.0 0.00 0.00 0.00 64 1011.1
20260904192036 74 106 1.0 5.0 0.00 0.00 0.00 65 1011.1
20260904191553 74 309 2.0 5.0 0.00 0.00 0.00 64 1011.1
20260904191058 75 334 1.0 5.0 0.00 0.00 0.00 66 1011.2
20260904190601 75 151 1.0 4.0 0.00 0.00 0.00 62 1011.0
20260904190045 75 329 2.0 4.0 0.00 0.00 0.00 64 1011.1
20260904185547 75 327 2.0 4.0 0.00 0.00 0.00 62 1011.2
20260904185050 75 184 2.0 4.0 0.00 0.00 0.00 65 1011.2
20260904184534 75 244 1.0 6.0 0.00 0.00 0.00 64 1011.2
20260904184036 74 316 1.0 6.0 0.00 0.00 0.00 62 1011.2
20260904183540 74 173 2.0 5.0 0.00 0.00 0.00 62 1011.3
20260904183041 75 335 1.0 5.0 0.00 0.00 0.00 64 1011.5
20260904182527 74 243 2.0 6.0 0.00 0.00 0.00 62 1011.5
20260904182034 74 285 2.0 6.0 0.00 0.00 0.00 61 1011.5
20260904181600 74 240 2.0 5.0 0.00 0.00 0.00 63 1011.7
20260904181038 75 198 2.0 8.0 0.00 0.00 0.00 60 1011.6
20260904180618 75 221 2.0 8.0 0.00 0.00 0.00 61 1011.6
20260904175606 75 242 1.0 6.0 0.00 0.00 0.00 60 1011.6
20260904175028 74 161 2.0 5.0 0.00 0.00 0.00 61 1011.6
20260904174530 74 325 3.0 7.0 0.00 0.00 0.00 61 1011.5
20260904174032 75 155 2.0 7.0 0.00 0.00 0.00 66 1011.5
20260904173552 75 213 1.0 5.0 0.00 0.00 0.00 63 1011.5
20260904173055 74 201 2.0 4.0 0.00 0.00 0.00 64 1011.4
20260904172540 74 303 2.0 4.0 0.00 0.00 0.00 65 1011.4
20260904172044 74 222 1.0 5.0 0.00 0.00 0.00 65 1011.3
20260904171526 74 288 3.0 5.0 0.00 0.00 0.00 68 1011.3
20260904171032 74 311 2.0 5.0 0.00 0.00 0.00 66 1011.3
20260904170535 74 323 3.0 4.0 0.00 0.00 0.00 65 1011.4
20260904170042 74 215 1.0 8.0 0.00 0.00 0.00 67 1011.4
20260904165525 74 330 2.0 8.0 0.00 0.00 0.00 65 1011.6
20260904165034 74 221 2.0 5.0 0.00 0.00 0.00 66 1011.7
20260904164537 73 319 2.0 5.0 0.00 0.00 0.00 67 1011.6
20260904164043 73 323 2.0 5.0 0.00 0.00 0.00 66 1011.6
20260904163551 73 325 1.0 8.0 0.00 0.00 0.00 67 1011.6
20260904163027 73 220 2.0 8.0 0.00 0.00 0.00 68 1011.8
20260904162530 73 355 3.0 9.0 0.00 0.00 0.00 67 1011.8
20260904162055 73 225 3.0 11.0 0.00 0.00 0.00 66 1011.9
20260904161536 73 187 3.0 11.0 0.00 0.00 0.00 68 1011.9
20260904161042 73 344 3.0 8.0 0.00 0.00 0.00 68 1011.9
20260904160546 72 203 3.0 8.0 0.00 0.00 0.00 69 1011.9
20260904160028 72 252 1.0 6.0 0.00 0.00 0.00 73 1011.8
20260904155547 72 243 0.0 5.0 0.00 0.00 0.00 73 1011.9
20260904155105 72 331 2.0 5.0 0.00 0.00 0.00 73 1012.0
20260904154550 72 235 0.0 5.0 0.00 0.00 0.00 76 1012.2
20260904154044 72 355 3.0 8.0 0.00 0.00 0.00 73 1012.2
20260904153547 72 340 2.0 8.0 0.00 0.00 0.00 74 1012.1
20260904153049 72 317 2.0 6.0 0.00 0.00 0.00 72 1012.1
20260904152535 72 318 2.0 4.0 0.00 0.00 0.00 74 1012.2
20260904152036 72 225 2.0 4.0 0.00 0.00 0.00 76 1012.2
20260904151538 72 322 2.0 8.0 0.00 0.00 0.00 76 1012.3
20260904151044 71 38 2.0 8.0 0.00 0.00 0.00 78 1012.3
20260904150529 71 169 1.0 4.0 0.00 0.00 0.00 78 1012.4
20260904150050 71 229 2.0 5.0 0.00 0.00 0.00 78 1012.4
20260904145532 71 224 3.0 6.0 0.00 0.00 0.00 78 1012.3
20260904145035 71 217 3.0 6.0 0.00 0.00 0.00 78 1012.2
20260904144544 71 5 2.0 8.0 0.00 0.00 0.00 79 1012.3
20260904144029 70 215 3.0 8.0 0.00 0.00 0.00 81 1012.3
20260904143609 70 240 2.0 8.0 0.00 0.00 0.00 80 1012.3
20260904143052 70 213 1.0 11.0 0.00 0.00 0.00 81 1012.4
20260904142535 70 328 3.0 12.0 0.00 0.00 0.00 81 1012.4
20260904142041 70 277 2.0 4.0 0.00 0.00 0.00 82 1012.5
20260904141540 69 319 1.0 4.0 0.00 0.00 0.00 83 1012.5
20260904141029 69 331 2.0 4.0 0.00 0.00 0.00 82 1012.4
20260904140531 69 234 1.0 5.0 0.00 0.00 0.00 82 1012.3
20260904140036 69 247 1.0 5.0 0.00 0.01 0.00 84 1012.3
20260904135539 68 329 2.0 5.0 0.00 0.01 0.00 85 1012.3
20260904135045 68 281 0.0 6.0 0.00 0.01 0.00 86 1012.3
20260904134531 68 244 1.0 5.0 0.00 0.01 0.00 87 1012.3
20260904134053 68 256 1.0 2.0 0.00 0.01 0.00 87 1012.3
20260904133539 67 239 0.0 3.0 0.00 0.01 0.00 89 1012.3
20260904133043 67 232 1.0 3.0 0.00 0.01 0.00 90 1012.3
20260904132526 67 121 0.0 4.0 0.00 0.01 0.00 91 1012.4
20260904132032 67 28 1.0 4.0 0.00 0.01 0.00 90 1012.4
20260904131550 66 311 0.0 4.0 0.00 0.01 0.00 92 1012.3
20260904131054 66 5 2.0 4.0 0.00 0.01 0.00 91 1012.3
20260904130556 66 323 2.0 4.0 0.00 0.01 0.00 93 1012.3